Tracking 19176 objects as of 27-May-2018
HD Live streaming from Space Station
objects crossing your sky now

SL-12 R/B(2)

Track SL-12 R/B(2) now!


NORAD ID: 27404
Int'l Code: 2002-016B
Perigee: 3,491.7 km
Apogee: 35,899.1 km
Inclination: 24.8 °
Period: 698.0 minutes
Semi major axis: 26066 km
RCS: 19.7997 m2 (large)
Launch date: March 30, 2002
Source: Commonwealth of Independent States (former USSR) (CIS)
Launch site: TYURATAM MISSILE AND SPACE COMPLEX (TTMTR)

Note: This is a ROCKET BODY
aabbcc
Your satellite tracking list
Your tracking list is empty




NASA's NSSDC Master Catalog

Two Line Element Set (TLE):
1 27404U 02016B   18146.22757750 -.00000091 +00000-0 +00000-0 0  9992
2 27404 024.7554 128.7861 6216316 349.6357 001.7657 02.06291221121758
Source of the keplerian elements: AFSPC